QPF
0.00 0.00 0.00 0.00 0.00 0.00 0.00 0.00 0.00 0.00 0.00 0.00 0.00 0.00 0.00 0.00 0.00 0.00 0.00 0.00 0.00 0.00 0.00 0.00 0.00 0.00 0.02 0.01 0.05 0.02 0.00 0.00 0.00 0.00 0.00 0.00 0.00 0.00 0.00 0.00 0.00 0.00 0.00 0.00 0.00
0.00 0.00 0.00 0.00 0.00 0.00 0.00 0.00 0.00 0.00 0.00 0.00 0.00 0.00 0.00 0.00 0.00 0.00 0.00 0.00 0.00 0.00 0.00 0.01 0.01 0.00 0.00 0.03 0.02 0.00 0.00 0.00 0.00 0.00 0.00 0.00 0.00 0.00 0.00 0.00 0.00 0.00 0.00 0.00 0.00
0.00 0.00 0.00 0.00 0.00 0.00 0.00 0.00 0.00 0.00 0.00 0.00 0.00 0.00 0.00 0.00 0.00 0.00 0.00 0.00 0.00 0.00 0.00 0.00 0.00 0.01 0.09 0.30 0.16 0.00 0.00 0.00 0.00 0.00 0.00 0.00 0.00 0.00 0.00 0.00 0.00 0.00 0.00 0.00 0.00
0.00 0.00 0.00 0.00 0.00 0.00 0.00 0.00 0.00 0.00 0.00 0.00 0.00 0.00 0.00 0.00 0.00 0.00 0.00 0.00 0.00 0.00 0.00 0.00 0.00 0.18 0.52 0.17 0.03 0.00 0.00 0.00 0.00 0.00 0.00 0.00 0.00 0.00 0.00 0.00 0.00 0.00 0.00 0.00 0.00
0.00 0.00 0.00 0.00 0.00 0.00 0.00 0.00 0.00 0.00 0.00 0.00 0.00 0.00 0.00 0.00 0.00 0.00 0.00 0.00 0.00 0.00 0.00 0.00 0.01 0.19 0.22 0.26 0.20 0.05 0.01 0.00 0.00 0.00 0.00 0.00 0.00 0.00 0.00 0.00 0.00 0.00 0.00 0.00 0.00
0.00 0.00 0.00 0.00 0.00 0.00 0.00 0.00 0.00 0.00 0.00 0.00 0.00 0.00 0.00 0.00 0.00 0.00 0.00 0.00 0.00 0.02 0.01 0.01 0.00 0.00 0.02 0.07 0.09 0.04 0.03 0.01 0.00 0.00 0.00 0.00 0.00 0.00 0.00 0.00 0.00 0.00 0.00 0.00 0.00
0.00 0.00 0.00 0.00 0.00 0.00 0.00 0.00 0.00 0.00 0.00 0.00 0.00 0.00 0.00 0.00 0.00 0.00 0.00 0.00 0.00 0.02 0.01 0.02 0.01 0.01 0.03 0.06 0.05 0.01 0.03 0.01 0.00 0.00 0.00 0.00 0.00 0.00 0.00 0.00 0.00 0.00 0.00 0.00 0.00
0.00 0.00 0.00 0.00 0.00 0.00 0.00 0.00 0.00 0.00 0.00 0.00 0.00 0.00 0.00 0.00 0.00 0.00 0.00 0.00 0.01 0.01 0.02 0.01 0.01 0.01 0.01 0.07 0.09 0.01 0.00 0.00 0.01 0.00 0.01 0.01 0.00 0.00 0.00 0.02 0.00 0.00 0.00 0.00 0.00
0.00 0.00 0.00 0.00 0.00 0.00 0.00 0.00 0.00 0.00 0.00 0.00 0.00 0.00 0.00 0.00 0.00 0.00 0.00 0.02 0.02 0.01 0.00 0.00 0.01 0.01 0.03 0.28 0.21 0.01 0.01 0.00 0.01 0.00 0.02 0.02 0.03 0.00 0.00 0.01 0.00 0.00 0.00 0.00 0.00
0.00 0.00 0.00 0.00 0.00 0.00 0.00 0.00 0.00 0.00 0.00 0.00 0.00 0.00 0.00 0.00 0.00 0.00 0.00 0.01 0.00 0.00 0.00 0.03 0.08 0.02 0.03 0.06 0.02 0.01 0.00 0.00 0.00 0.00 0.00 0.00 0.00 0.00 0.00 0.00 0.00 0.00 0.00 0.00 0.00
0.00 0.00 0.00 0.00 0.00 0.00 0.00 0.00 0.00 0.00 0.00 0.00 0.00 0.00 0.00 0.00 0.00 0.00 0.00 0.00 0.00 0.00 0.07 0.05 0.04 0.00 0.00 0.01 0.01 0.01 0.01 0.00 0.00 0.00 0.00 0.00 0.00 0.00 0.00 0.00 0.00 0.00 0.00 0.00 0.00
0.00 0.00 0.00 0.00 0.00 0.00 0.00 0.00 0.00 0.00 0.00 0.00 0.00 0.00 0.00 0.00 0.00 0.00 0.00 0.00 0.06 0.28 0.11 0.05 0.00 0.00 0.00 0.00 0.00 0.00 0.00 0.00 0.00 0.00 0.00 0.00 0.03 0.00 0.00 0.00 0.00 0.00 0.00 0.00 0.00
0.00 0.00 0.00 0.00 0.00 0.00 0.00 0.00 0.00 0.00 0.00 0.00 0.00 0.00 0.00 0.00 0.00 0.00 0.00 0.00 0.32 0.47 0.01 0.01 0.00 0.00 0.00 0.00 0.00 0.00 0.00 0.00 0.00 0.00 0.00 0.00 0.00 0.00 0.00 0.00 0.00 0.00 0.00 0.00 0.00
0.00 0.00 0.00 0.00 0.00 0.00 0.00 0.00 0.00 0.00 0.00 0.00 0.00 0.00 0.00 0.00 0.00 0.00 0.00 0.01 0.21 0.12 0.03 0.00 0.00 0.00 0.00 0.00 0.00 0.00 0.00 0.00 0.00 0.00 0.00 0.00 0.00 0.00 0.00 0.00 0.00 0.00 0.00 0.00 0.00
0.00 0.00 0.00 0.00 0.00 0.00 0.00 0.00 0.00 0.00 0.00 0.00 0.00 0.00 0.00 0.00 0.00 0.00 0.00 0.00 0.00 0.01 0.00 0.00 0.00 0.00 0.01 0.01 0.00 0.00 0.00 0.00 0.00 0.00 0.00 0.00 0.01 0.00 0.00 0.00 0.00 0.00 0.00 0.00 0.00
0.00 0.00 0.00 0.00 0.00 0.00 0.00 0.00 0.00 0.00 0.00 0.00 0.00 0.00 0.00 0.00 0.00 0.00 0.00 0.00 0.02 0.00 0.00 0.00 0.00 0.00 0.00 0.00 0.00 0.00 0.00 0.00 0.00 0.00 0.00 0.00 0.00 0.00 0.00 0.00 0.00 0.00 0.00 0.00 0.00
0.00 0.00 0.00 0.00 0.00 0.00 0.00 0.00 0.00 0.00 0.00 0.00 0.00 0.00 0.00 0.00 0.00 0.00 0.00 0.00 0.00 0.00 0.00 0.00 0.00 0.00 0.00 0.00 0.00 0.00 0.00 0.00 0.00 0.00 0.00 0.00 0.00 0.00 0.00 0.00 0.00 0.00 0.00 0.00 0.00
0.00 0.00 0.00 0.00 0.00 0.00 0.00 0.00 0.00 0.00 0.01 0.00 0.00 0.00 0.00 0.00 0.00 0.00 0.01 0.00 0.00 0.00 0.00 0.00 0.01 0.01 0.00 0.00 0.00 0.00 0.00 0.00 0.00 0.00 0.00 0.00 0.00 0.00 0.00 0.00 0.00 0.00 0.00 0.00 0.00
0.00 0.00 0.00 0.00 0.00 0.00 0.00 0.00 0.00 0.01 0.01 0.00 0.00 0.00 0.00 0.00 0.01 0.00 0.00 0.01 0.02 0.00 0.01 0.01 0.00 0.00 0.00 0.00 0.00 0.00 0.00 0.00 0.00 0.00 0.00 0.00 0.00 0.00 0.00 0.00 0.00 0.00 0.00 0.00 0.00
0.00 0.00 0.00 0.00 0.00 0.00 0.00 0.00 0.00 0.00 0.00 0.00 0.00 0.00 0.00 0.00 0.00 0.00 0.00 0.01 0.01 0.02 0.03 0.00 0.00 0.00 0.00 0.00 0.00 0.00 0.00 0.00 0.00 0.00 0.00 0.00 0.00 0.00 0.00 0.00 0.00 0.00 0.00 0.00 0.00
0.00 0.00 0.00 0.00 0.00 0.00 0.00 0.00 0.00 0.00 0.00 0.00 0.00 0.00 0.00 0.00 0.00 0.01 0.00 0.03 0.03 0.07 0.00 0.01 0.01 0.01 0.00 0.00 0.00 0.00 0.00 0.00 0.00 0.00 0.00 0.00 0.00 0.00 0.00 0.00 0.00 0.00 0.00 0.00 0.00
0.00 0.00 0.00 0.00 0.00 0.00 0.00 0.00 0.00 0.00 0.00 0.00 0.00 0.00 0.00 0.00 0.02 0.01 0.00 0.02 0.01 0.02 0.00 0.00 0.00 0.01 0.00 0.00 0.00 0.00 0.00 0.00 0.00 0.00 0.00 0.00 0.00 0.00 0.00 0.00 0.00 0.00 0.00 0.00 0.00
0.00 0.00 0.00 0.00 0.00 0.00 0.00 0.00 0.00 0.00 0.00 0.00 0.00 0.00 0.00 0.02 0.06 0.01 0.02 0.01 0.00 0.00 0.00 0.01 0.00 0.00 0.00 0.00 0.00 0.00 0.00 0.00 0.00 0.00 0.00 0.00 0.00 0.00 0.00 0.00 0.00 0.00 0.00 0.00 0.00
0.00 0.00 0.00 0.00 0.00 0.00 0.00 0.00 0.00 0.00 0.00 0.00 0.00 0.00 0.00 0.02 0.07 0.08 0.05 0.00 0.00 0.00 0.00 0.00 0.00 0.00 0.00 0.00 0.00 0.00 0.00 0.00 0.00 0.00 0.00 0.00 0.00 0.00 0.00 0.00 0.00 0.00 0.00 0.00 0.00
0.00 0.00 0.00 0.00 0.00 0.00 0.00 0.00 0.00 0.00 0.00 0.00 0.00 0.00 0.00 0.00 0.00 0.00 0.01 0.00 0.00 0.00 0.00 0.00 0.00 0.00 0.00 0.00 0.00 0.00 0.00 0.00 0.00 0.00 0.00 0.00 0.00 0.00 0.00 0.00 0.00 0.00 0.00 0.00 0.00
0.00 0.00 0.00 0.00 0.00 0.00 0.00 0.00 0.00 0.00 0.00 0.00 0.00 0.00 0.00 0.00 0.00 0.00 0.00 0.00 0.00 0.00 0.00 0.00 0.00 0.00 0.00 0.00 0.00 0.00 0.00 0.00 0.00 0.00 0.00 0.00 0.00 0.00 0.00 0.00 0.00 0.00 0.00 0.00 0.00
0.00 0.00 0.00 0.00 0.00 0.00 0.00 0.00 0.00 0.00 0.00 0.00 0.00 0.00 0.00 0.00 0.00 0.00 0.00 0.00 0.00 0.00 0.00 0.00 0.00 0.00 0.00 0.00 0.00 0.00 0.00 0.00 0.00 0.00 0.00 0.00 0.00 0.00 0.00 0.00 0.00 0.00 0.00 0.00 0.00
MSLP
1015.98 1015.76 1015.29 1014.95 1014.63 1014.33 1013.92 1013.58 1013.21 1012.84 1012.58 1012.40 1012.13 1011.75 1011.27 1010.54 1009.41 1008.55 1007.66 1005.79 1005.70 1005.40 1005.83 1005.13 1004.35 1004.35 1004.36 1004.73 1006.00 1006.22 1006.52 1004.95 1003.36 1002.33 1001.85 1001.42 1001.59 1002.02 1002.36 1003.09 1003.61 1004.23 1005.59 1006.98 1007.87
1015.93 1015.70 1015.32 1014.90 1014.60 1014.24 1013.86 1013.49 1013.08 1012.76 1012.45 1012.28 1012.04 1011.64 1011.27 1010.73 1009.76 1007.50 1005.32 1005.23 1005.46 1005.58 1005.49 1004.81 1003.94 1003.86 1004.75 1006.05 1006.62 1006.70 1006.28 1004.60 1002.09 1001.46 1001.24 1001.00 1001.37 1001.97 1002.53 1003.42 1004.54 1005.49 1006.53 1007.34 1007.93
1015.84 1015.52 1015.27 1014.88 1014.58 1014.19 1013.79 1013.37 1013.02 1012.72 1012.37 1012.08 1011.84 1011.46 1011.12 1010.93 1009.39 1005.36 1004.58 1005.07 1005.37 1005.26 1005.10 1004.67 1004.40 1006.03 1006.72 1006.45 1006.37 1006.42 1005.38 1003.10 1002.02 1001.24 1001.04 1000.86 1001.28 1001.73 1002.46 1003.61 1004.54 1005.66 1006.64 1007.48 1008.16
1015.67 1015.40 1015.06 1014.78 1014.48 1014.10 1013.67 1013.26 1012.97 1012.66 1012.31 1011.90 1011.68 1011.22 1010.97 1010.60 1007.82 1004.63 1004.65 1004.93 1004.99 1004.88 1004.78 1004.46 1004.37 1006.84 1008.82 1009.25 1008.17 1007.27 1004.40 1003.55 1001.97 1001.28 1001.00 1000.89 1001.64 1002.03 1002.46 1003.51 1004.37 1005.57 1006.44 1007.40 1008.15
1015.56 1015.22 1014.88 1014.60 1014.31 1013.93 1013.51 1013.14 1012.83 1012.50 1012.18 1011.79 1011.55 1011.26 1010.17 1009.31 1005.76 1004.13 1004.72 1004.69 1004.71 1004.68 1004.39 1004.24 1004.43 1006.74 1008.72 1009.35 1008.55 1007.37 1004.94 1002.88 1001.85 1001.31 1001.26 1001.67 1002.35 1002.60 1003.00 1003.62 1004.46 1005.58 1006.52 1007.28 1007.87
1015.48 1015.10 1014.74 1014.45 1014.12 1013.71 1013.39 1013.01 1012.62 1012.24 1011.92 1011.70 1011.47 1011.25 1010.56 1007.50 1003.59 1003.84 1004.49 1004.65 1004.30 1004.43 1003.85 1003.80 1004.08 1004.49 1005.95 1007.56 1006.98 1005.88 1004.53 1003.46 1002.26 1002.16 1002.11 1002.13 1002.83 1002.98 1003.86 1003.96 1004.71 1005.59 1006.55 1007.06 1007.46
1015.29 1015.03 1014.62 1014.30 1013.92 1013.52 1013.21 1012.82 1012.33 1011.90 1011.69 1011.58 1011.50 1011.02 1009.20 1005.54 1003.00 1003.36 1003.79 1003.76 1003.70 1003.84 1003.41 1003.74 1003.86 1004.04 1004.81 1005.64 1005.42 1004.28 1004.24 1003.55 1003.03 1002.47 1002.87 1002.88 1003.67 1004.04 1004.29 1004.36 1004.94 1005.70 1006.38 1006.75 1007.11
1015.18 1014.90 1014.47 1014.10 1013.69 1013.36 1013.02 1012.54 1011.94 1011.51 1011.36 1011.23 1011.21 1010.62 1007.54 1003.12 1002.64 1002.80 1003.07 1003.18 1003.46 1003.19 1003.46 1003.02 1003.12 1003.82 1005.09 1005.14 1006.26 1004.75 1004.53 1004.38 1002.83 1003.06 1003.48 1003.58 1004.15 1004.03 1004.53 1004.82 1005.01 1005.50 1006.06 1006.41 1006.77
1015.08 1014.75 1014.30 1013.88 1013.53 1013.16 1012.73 1012.06 1011.36 1010.97 1010.88 1010.98 1010.88 1009.67 1005.72 1002.78 1002.48 1002.46 1002.74 1002.96 1002.93 1002.70 1003.42 1003.23 1003.46 1004.91 1005.93 1006.93 1006.91 1005.47 1004.99 1004.34 1003.54 1003.06 1003.32 1003.80 1004.45 1004.27 1004.51 1004.69 1005.03 1005.23 1005.80 1006.23 1006.53
1014.95 1014.58 1014.08 1013.67 1013.42 1013.03 1012.24 1011.21 1010.47 1010.59 1010.04 1010.07 1009.24 1008.46 1004.78 1002.51 1001.98 1002.21 1002.58 1002.96 1003.62 1003.54 1004.14 1004.54 1005.57 1005.94 1006.48 1007.04 1006.96 1006.25 1005.08 1004.02 1002.93 1002.20 1003.08 1003.62 1004.06 1004.05 1004.02 1004.50 1004.84 1004.88 1005.41 1005.94 1006.26
1014.80 1014.40 1013.85 1013.49 1013.36 1013.17 1012.08 1010.42 1010.60 1010.00 1009.10 1007.08 1005.55 1004.34 1002.55 1001.89 1001.90 1002.24 1002.56 1002.93 1004.48 1005.69 1007.35 1007.40 1006.55 1006.40 1005.66 1005.34 1004.95 1004.09 1002.82 1002.84 1001.62 1000.88 1002.21 1002.79 1003.56 1003.54 1003.40 1003.92 1004.12 1004.46 1004.89 1005.31 1005.79
1014.63 1014.21 1013.66 1013.33 1013.24 1013.20 1013.15 1010.91 1007.06 1006.40 1005.72 1004.74 1003.71 1003.15 1002.03 1001.38 1001.92 1002.09 1002.43 1003.86 1006.26 1007.42 1008.15 1008.28 1006.74 1004.87 1004.74 1003.74 1003.29 1002.26 1001.32 1000.76 1000.24 1000.15 1000.39 1002.42 1004.44 1003.26 1002.59 1002.43 1002.75 1003.44 1004.16 1004.51 1005.00
1014.41 1013.97 1013.50 1013.22 1012.90 1012.91 1011.18 1008.49 1006.07 1005.68 1005.27 1002.86 1001.86 1001.78 1000.98 1001.22 1001.51 1001.63 1002.68 1005.37 1007.85 1008.38 1008.02 1008.19 1005.01 1004.16 1003.55 1001.79 1001.22 1000.48 1000.28 1000.24 1000.32 1000.24 1001.13 1002.26 1003.80 1002.96 1002.13 1001.57 1001.87 1002.30 1002.85 1003.56 1003.99
1014.16 1013.70 1013.39 1013.11 1013.11 1010.58 1008.90 1006.49 1006.06 1006.15 1005.49 1001.90 1000.57 1000.45 1000.14 1000.59 1000.90 1000.83 1002.02 1004.97 1007.94 1007.95 1008.11 1007.05 1004.22 1003.42 1002.38 1001.36 1000.28 999.82 999.30 999.86 1000.18 1001.28 1002.61 1002.75 1004.09 1002.95 1002.24 1001.80 1001.72 1001.56 1002.22 1002.57 1003.06
1013.85 1013.45 1013.34 1013.46 1012.98 1010.22 1006.19 1005.53 1005.04 1004.98 1004.28 1000.00 999.52 998.33 999.05 1000.11 999.94 1000.11 1000.87 1002.48 1005.60 1005.53 1006.37 1003.90 1002.82 1002.41 1000.54 999.83 999.12 998.88 998.53 999.66 1000.70 1002.14 1003.38 1004.48 1004.67 1003.02 1002.22 1002.02 1001.66 1001.25 1001.50 1001.71 1001.91
1013.45 1013.27 1013.19 1012.55 1012.34 1008.46 1006.48 1005.48 1004.89 1005.10 1002.25 999.45 998.82 998.79 999.36 999.85 999.95 1000.12 1000.41 1001.14 1002.32 1004.12 1004.07 1002.82 1001.64 1000.64 999.59 998.59 998.15 998.04 998.62 1000.29 1001.54 1002.76 1004.12 1004.24 1004.33 1003.01 1002.15 1001.51 1001.15 1000.86 1000.58 1000.65 1001.14
1013.17 1013.11 1013.20 1011.82 1009.27 1007.29 1006.27 1005.92 1005.59 1004.01 1000.55 999.67 999.30 999.31 999.50 999.86 999.91 1000.32 1000.47 1001.33 1002.21 1003.07 1003.54 1002.67 1001.09 999.84 999.05 998.37 997.66 998.06 998.86 1000.56 1002.73 1003.61 1003.41 1002.69 1003.78 1002.23 1000.85 1000.26 1000.04 1000.07 1000.09 1000.07 1000.19
1012.96 1012.82 1011.56 1010.52 1008.70 1008.50 1007.20 1006.53 1005.35 1002.61 1001.30 1000.06 999.70 999.35 999.61 999.58 999.76 999.82 1000.88 1001.78 1002.51 1003.51 1004.09 1003.67 1001.56 999.56 997.98 997.76 997.72 998.02 998.85 999.92 1001.46 1002.88 1003.22 1002.60 1002.38 1001.02 1000.07 999.64 999.56 999.34 999.66 999.92 1000.06
1012.81 1011.95 1010.62 1007.94 1008.55 1009.02 1008.27 1006.62 1004.02 1002.94 1002.08 1000.93 1000.09 999.38 999.28 999.27 999.87 1000.38 1001.00 1002.26 1002.54 1003.49 1004.47 1003.72 1001.87 999.56 997.99 997.61 997.66 997.88 998.35 998.81 1000.28 1001.83 1003.44 1003.02 1001.86 1000.77 1000.07 1000.00 999.98 999.63 999.66 999.95 1000.77
1012.36 1010.03 1007.63 1006.26 1007.04 1007.88 1007.71 1005.67 1003.18 1001.94 1001.08 1000.93 1000.24 998.53 999.09 999.55 999.88 1000.21 1001.38 1002.04 1003.12 1003.88 1004.27 1003.84 1002.66 1000.06 998.58 997.72 997.32 997.45 997.84 998.68 1000.09 1001.78 1003.19 1003.20 1002.20 1001.32 1000.52 1000.56 999.92 999.79 1000.24 1000.56 1000.80
1012.10 1008.75 1004.38 1004.98 1006.32 1007.08 1006.47 1004.32 1002.52 1001.89 1000.23 999.62 998.96 999.04 1000.05 1001.27 1001.00 1000.65 1001.62 1003.65 1003.48 1002.68 1004.07 1003.59 1003.14 1000.56 999.37 998.40 997.91 997.94 998.30 999.10 1000.26 1001.50 1002.97 1003.57 1002.53 1000.33 1000.53 1000.26 1000.15 1000.47 1000.73 1000.87 1001.05
1010.79 1007.18 1003.99 1004.35 1005.63 1005.58 1004.98 1003.66 1001.96 1000.50 998.96 998.57 998.73 999.37 1000.75 1001.93 1002.46 1002.70 1002.15 1001.74 1002.39 1003.02 1003.38 1002.92 1002.10 1002.00 999.99 998.17 997.66 997.90 998.41 999.20 1000.82 1001.84 1002.30 1002.22 1002.33 1000.90 1000.46 1000.62 1001.15 1001.42 1001.56 1001.51 1001.61
1009.91 1005.76 1003.96 1004.04 1004.60 1004.37 1003.92 1002.92 1001.59 1000.10 998.85 998.44 998.36 999.68 1000.40 1001.55 1003.56 1004.48 1003.52 1001.51 1000.27 1001.15 1001.01 1001.18 1001.24 1001.83 1001.10 999.36 998.29 998.27 998.29 998.77 999.97 1001.10 1002.29 1002.91 1002.91 1001.86 1001.90 1001.47 1002.45 1002.38 1002.40 1002.37 1002.45
1010.10 1006.32 1004.82 1004.37 1003.85 1003.73 1003.22 1002.27 1000.93 999.30 998.80 998.58 998.70 1000.28 1001.05 1002.36 1003.04 1005.78 1005.12 1001.16 999.88 1000.10 999.88 999.38 1000.11 1000.55 1000.53 999.70 999.06 998.70 998.52 998.81 999.71 1001.11 1002.04 1002.74 1003.54 1003.30 1003.26 1003.10 1003.08 1003.13 1003.08 1003.15 1003.19
1009.67 1005.91 1003.87 1003.90 1003.72 1003.66 1003.04 1001.87 1000.74 999.29 998.37 998.31 998.55 998.87 999.95 1001.72 1002.77 1003.29 1002.39 1000.70 1000.10 999.20 999.13 999.11 999.94 1000.01 999.80 999.43 999.00 998.80 998.88 999.18 999.86 1000.45 1001.50 1002.77 1003.69 1004.22 1003.99 1003.95 1003.92 1003.74 1003.73 1003.70 1003.62
1009.45 1006.97 1004.42 1003.48 1003.01 1003.11 1002.48 1001.58 1000.56 999.28 998.40 998.17 998.31 998.48 998.39 998.92 999.27 999.84 999.48 999.38 998.96 999.08 998.90 998.77 999.95 1000.13 1000.22 999.95 999.52 999.32 999.11 999.22 999.49 1000.57 1001.82 1002.86 1004.02 1004.04 1004.07 1004.21 1004.42 1004.51 1004.35 1004.35 1004.17
1008.20 1006.60 1005.54 1003.32 1002.63 1002.72 1002.02 1001.15 1000.15 999.17 998.86 998.34 998.27 998.23 998.12 998.21 997.46 997.29 997.61 997.95 997.98 998.32 998.64 998.95 1000.07 1001.13 1001.34 1000.77 1000.41 1000.09 999.70 999.39 999.95 1000.68 1002.03 1003.58 1004.26 1004.28 1004.70 1004.79 1005.04 1005.01 1004.58 1004.61 1004.52
Thickness
5758 5759 5763 5767 5771 5775 5780 5785 5790 5796 5801 5806 5811 5816 5822 5830 5841 5848 5844 5866 5871 5877 5873 5874 5879 5873 5872 5860 5852 5851 5810 5805 5832 5835 5843 5868 5855 5870 5875 5858 5862 5863 5849 5845 5847
5758 5759 5762 5766 5771 5775 5780 5785 5791 5797 5802 5807 5812 5818 5822 5829 5837 5845 5876 5877 5877 5874 5867 5865 5867 5872 5852 5840 5837 5824 5806 5822 5867 5865 5856 5868 5864 5863 5857 5851 5844 5845 5850 5850 5847
5757 5760 5761 5765 5770 5775 5781 5786 5792 5797 5803 5808 5813 5820 5825 5828 5832 5860 5883 5880 5877 5876 5874 5875 5873 5847 5825 5838 5839 5832 5820 5861 5869 5878 5876 5870 5864 5874 5854 5838 5846 5836 5838 5841 5839
5757 5759 5763 5765 5770 5775 5781 5787 5792 5798 5804 5810 5815 5822 5826 5830 5816 5875 5883 5881 5880 5879 5875 5870 5866 5820 5802 5795 5821 5819 5857 5859 5873 5881 5877 5871 5873 5862 5861 5852 5861 5852 5848 5843 5836
5756 5759 5763 5766 5770 5776 5782 5788 5794 5800 5805 5812 5817 5822 5833 5828 5847 5887 5882 5883 5882 5877 5870 5866 5857 5817 5798 5793 5812 5815 5844 5872 5881 5882 5881 5878 5860 5858 5858 5867 5866 5857 5849 5841 5838
5754 5759 5763 5766 5771 5777 5783 5789 5795 5802 5808 5813 5818 5823 5826 5821 5891 5889 5885 5882 5881 5874 5873 5874 5862 5868 5844 5821 5827 5848 5856 5867 5880 5874 5873 5865 5859 5865 5859 5870 5861 5853 5843 5843 5842
5755 5758 5763 5767 5772 5779 5784 5791 5798 5805 5810 5814 5818 5825 5828 5842 5895 5893 5889 5884 5886 5878 5871 5876 5875 5863 5860 5840 5856 5861 5849 5860 5869 5873 5859 5869 5843 5843 5862 5867 5856 5851 5845 5846 5845
5754 5758 5762 5767 5774 5780 5785 5793 5801 5809 5813 5817 5820 5825 5824 5893 5900 5893 5891 5883 5888 5891 5884 5890 5886 5872 5854 5860 5838 5851 5844 5822 5865 5867 5860 5855 5814 5848 5863 5858 5854 5853 5850 5849 5849
5754 5758 5762 5769 5775 5781 5788 5797 5806 5813 5817 5819 5821 5825 5833 5898 5882 5893 5894 5876 5884 5890 5887 5892 5880 5851 5852 5811 5805 5826 5815 5824 5840 5867 5859 5850 5823 5851 5863 5860 5854 5851 5849 5851 5851
5753 5758 5763 5770 5775 5782 5792 5805 5814 5816 5823 5825 5833 5820 5855 5865 5888 5892 5896 5885 5866 5870 5861 5862 5842 5830 5830 5808 5786 5793 5815 5827 5832 5863 5858 5840 5839 5857 5865 5861 5850 5854 5853 5852 5852
5752 5758 5764 5770 5775 5780 5794 5809 5806 5808 5818 5829 5842 5853 5871 5889 5899 5883 5888 5877 5864 5845 5809 5826 5819 5810 5826 5842 5842 5841 5844 5821 5860 5884 5856 5849 5847 5857 5864 5859 5857 5858 5856 5855 5856
5752 5757 5764 5771 5776 5779 5784 5801 5834 5844 5825 5851 5861 5866 5884 5892 5862 5874 5891 5851 5829 5809 5817 5814 5811 5848 5855 5860 5850 5855 5858 5860 5883 5894 5882 5852 5817 5856 5872 5875 5875 5871 5864 5865 5866
5751 5757 5764 5770 5778 5783 5801 5821 5851 5853 5825 5853 5873 5867 5878 5884 5863 5866 5875 5840 5811 5805 5812 5802 5843 5863 5858 5863 5862 5869 5863 5861 5863 5888 5880 5861 5828 5855 5877 5885 5885 5884 5882 5879 5876
5751 5757 5763 5770 5778 5803 5811 5842 5850 5850 5797 5838 5859 5872 5886 5885 5860 5896 5890 5847 5803 5805 5815 5821 5860 5856 5860 5857 5872 5853 5888 5881 5879 5854 5824 5862 5801 5846 5863 5869 5876 5885 5881 5883 5882
5751 5757 5763 5767 5774 5797 5837 5853 5859 5847 5750 5862 5866 5916 5898 5870 5881 5883 5907 5875 5822 5827 5827 5844 5857 5856 5863 5869 5889 5874 5898 5884 5878 5848 5834 5822 5795 5827 5865 5854 5863 5878 5881 5885 5886
5752 5757 5762 5773 5778 5813 5836 5850 5846 5785 5768 5849 5876 5869 5866 5874 5877 5887 5886 5896 5879 5851 5852 5863 5887 5880 5878 5900 5907 5910 5891 5872 5859 5838 5799 5818 5814 5823 5842 5855 5866 5879 5888 5892 5890
5752 5757 5761 5777 5800 5825 5841 5829 5781 5769 5854 5846 5851 5867 5863 5858 5865 5869 5866 5857 5841 5829 5828 5852 5865 5889 5897 5879 5902 5896 5869 5817 5796 5800 5801 5846 5817 5831 5867 5882 5888 5883 5886 5895 5899
5753 5758 5774 5788 5807 5815 5823 5800 5769 5819 5833 5860 5861 5868 5852 5866 5864 5873 5855 5844 5861 5845 5820 5801 5814 5878 5907 5892 5881 5880 5869 5826 5809 5809 5811 5851 5817 5845 5886 5897 5902 5906 5904 5905 5902
5753 5766 5779 5805 5807 5806 5796 5775 5794 5805 5829 5833 5848 5851 5853 5869 5863 5862 5854 5835 5853 5852 5819 5809 5827 5887 5909 5908 5900 5877 5854 5893 5855 5855 5802 5831 5854 5874 5888 5884 5888 5897 5900 5901 5895
5759 5779 5796 5818 5817 5806 5786 5786 5818 5843 5846 5845 5817 5870 5849 5857 5859 5860 5846 5861 5847 5850 5847 5839 5818 5871 5897 5909 5908 5897 5903 5847 5843 5818 5795 5813 5827 5823 5857 5862 5884 5892 5885 5889 5894
5757 5773 5821 5828 5820 5795 5778 5803 5830 5847 5853 5846 5852 5852 5854 5838 5853 5861 5840 5833 5848 5858 5848 5847 5831 5856 5884 5879 5869 5870 5857 5868 5858 5840 5798 5790 5801 5871 5868 5878 5881 5877 5882 5885 5891
5766 5768 5824 5832 5785 5796 5793 5818 5838 5845 5877 5874 5876 5862 5843 5833 5832 5835 5840 5851 5862 5837 5829 5853 5844 5813 5853 5899 5913 5896 5876 5863 5816 5822 5832 5816 5811 5880 5890 5885 5871 5869 5876 5883 5887
5763 5791 5823 5822 5774 5791 5812 5823 5843 5847 5862 5868 5871 5859 5861 5845 5814 5812 5834 5870 5885 5877 5863 5869 5843 5815 5826 5860 5885 5878 5887 5886 5868 5850 5830 5803 5814 5876 5869 5869 5863 5861 5864 5867 5871
5762 5770 5793 5805 5812 5802 5804 5814 5826 5868 5866 5871 5867 5848 5842 5829 5828 5788 5799 5865 5884 5886 5884 5892 5863 5843 5815 5836 5863 5857 5870 5879 5867 5822 5827 5831 5817 5838 5843 5848 5854 5856 5859 5859 5859
5764 5778 5799 5778 5796 5803 5812 5820 5822 5835 5869 5876 5866 5866 5853 5819 5822 5805 5832 5855 5871 5886 5892 5883 5847 5862 5864 5868 5870 5868 5862 5863 5853 5858 5835 5833 5814 5823 5836 5843 5847 5852 5853 5851 5849
5752 5767 5798 5797 5808 5807 5812 5815 5825 5844 5856 5856 5856 5870 5874 5860 5862 5844 5866 5864 5866 5879 5878 5883 5839 5854 5854 5861 5860 5851 5863 5863 5864 5859 5835 5829 5812 5837 5842 5844 5838 5838 5837 5835 5836
5782 5794 5791 5802 5810 5804 5812 5823 5834 5850 5856 5867 5863 5863 5854 5864 5890 5894 5897 5890 5889 5871 5867 5869 5845 5830 5821 5848 5847 5823 5847 5856 5855 5856 5838 5805 5819 5834 5828 5828 5825 5824 5828 5826 5827